Starlink 33907

operational
NORAD ID: 63769 Int'l Des: 2025-089 Owner: SPXS Country: US Constellation: starlink
LEOCIRCULAR

Starlink 33907について

説明を読み込み中...

リアルタイム位置

3D地球を読み込み中...

次回通過

高度履歴

Altitude vs Time

uPlot chart will show altitude changes over time

軌道要素

1 63769U 25089U 25308.51968505 .00036112 00000-0 13135-2 0 9990
2 63769 43.0006 32.1949 0003597 112.6211 247.5021 15.27623226 29763
Epoch: Nov 4, 2025 • Age: 13 hours

現在のステータス

高度 480.5 km
速度 7.63 km/s
衛星直下点 6.99°N, 130.52°E
打ち上げ日 Apr 29, 2025
運用期間 0.5 years
タイプ internet

技術仕様

分類 Payload
質量 575.00 kg
乾燥質量 530.00 kg
総質量 575.00 kg
長さ 0.30 m
直径 4.10 m
スパン 29.00 m
形状 Box + pan
製造者 SPXS
バスタイプ Starlink V2MO
フェーズステータス In Orbit
所有者/国 SPXS/US

大規模コンステレーション

Loading constellations...